Regional Weather Roundup
Issued by NWS

Home | Current Version | Previous Version | Graphics & Text | Print | Product List | Glossary Off
Versions: 1 2 3 4 5 6 7 8 9 10 11 12 13 14 15 16 17 18 19 20 21 22 23 24 25 26 27 28 29 30 31 32 33 34 35 36 37 38 39 40 41 42 43 44 45 46 47 48 49 50

000
ASUS43 KDTX 152310
RWRMI
MICHIGAN HOURLY REGIONAL WEATHER ROUNDUP
NATIONAL WEATHER SERVICE DETROIT/PONTIAC MI
700 PM EDT MON SEP 15 2014

NOTE: "FAIR" INDICATES FEW OR NO CLOUDS BELOW 12,000 FEET WITH NO
SIGNIFICANT WEATHER AND/OR OBSTRUCTION TO VISIBILITY.

MIZ047>049-052>055-059>063-066>070-074>076-081>083-160000-
SOUTHEAST LOWER MICHIGAN

CITY           SKY/WX    TMP DP  RH WIND       PRES   REMARKS
ADRIAN         LGT RAIN  56  53  90 SW5       30.10R FOG
ALMA           LGT RAIN  55  53  94 N6        30.09S
ANN ARBOR      CLOUDY    58  50  75 SW5       30.07S
BAD AXE        LGT RAIN  55  54  97 CALM      30.09R
CARO           RAIN      56  54  92 NW3       30.08S
DETROIT CITY   CLOUDY    61  48  62 W3        30.07S
DETROIT        CLOUDY    59  51  75 S5        30.08R
FLINT          RAIN      59  51  75 CALM      30.07R
GROSSE ILE     MIX PCPN  61  54  77 CALM      30.06R
HILLSDALE      LGT RAIN  55  54  95 W6        30.10R
HOWELL         CLOUDY    56  51  85 W5        30.07S

CITY           SKY/WX    TMP DP  RH WIND       PRES   REMARKS
JACKSON        CLOUDY    58  51  78 SW3       30.08S
LAMBERTVILLE   LGT RAIN  55  52  88 W5        30.11R
LANSING        LGT RAIN  56  52  86 W8        30.09R
LAPEER         CLOUDY    58  51  76 CALM      30.06F
MASON          RAIN      56  51  82 W6        30.08R
MONROE         LGT RAIN  57  55  94 S5        30.07R
MT. CLEMENS    LGT RAIN  59  47  64 CALM      30.04F
PONTIAC        LGT RAIN  57  50  77 W3        30.06S
PORT HOPE        N/A     56  50  80 W5        30.07R
PORT HURON     CLOUDY    57  55  94 CALM      30.06F
TRI CITIES     LGT RAIN  56  53  90 N6        30.10R FOG
TROY           CLOUDY    60  49  65 SW5       30.08S
SAGINAW HB     LGT RAIN  55  55 100 N5        30.08S
$$
MIZ043>046-050>051-056>058-064>065-071>073-077>080-160000-
SOUTHWEST LOWER MICHIGAN

CITY           SKY/WX    TMP DP  RH WIND       PRES   REMARKS
BATTLE CREEK   CLOUDY    58  50  75 SW5       30.09R
BENTON HARBOR  CLOUDY    57  51  80 W3        30.09R
BIG RAPIDS     LGT RAIN  52  52  99 N3        30.10R
COLDWATER      CLOUDY    56  53  89 W6        30.10R
FREMONT        DRIZZLE   54  53  97 N5        30.10S
HOLLAND        LGT RAIN  58  55  90 VRB6      30.10R
GRAND RAPIDS   LGT RAIN  55  54  96 N6        30.10R
IONIA          RAIN      55  54  97 N6        30.09R
KALAMAZOO      LGT RAIN  58  52  80 SW9       30.10R
LUDINGTON      DRIZZLE   55  52  92 CALM      30.11S
MARSHALL       CLOUDY    57  50  77 W6        30.08S
MOUNT PLEASANT LGT RAIN  54  52  95 CALM      30.09S
MUSKEGON       CLOUDY    56  52  86 N7        30.11S
SOUTH HAVEN    CLOUDY    59  53  80 W5        30.08S
$$
MIZ016>042-160000-
NORTHERN LOWER MICHIGAN

CITY           SKY/WX    TMP DP  RH WIND       PRES   REMARKS
ALPENA         CLOUDY    56  51  84 S5        30.07R
BEAVER ISLAND  CLOUDY    57  47  68 W9        30.08S
BELLAIRE       MOCLDY    58  45  60 W3        30.09R
CADILLAC       DRIZZLE   51  51  99 CALM      30.09R
CHARLEVOIX     MOCLDY    58  43  56 W7        30.12R
FRANKFORT      MOCLDY    59  49  70 W6        30.10R
GAYLORD        CLOUDY    54  40  59 NW3       30.08R
GRAYLING       CLOUDY    54  54 100 MISG      30.10R
HARBOR SPRINGS MOCLDY    59  42  53 W8        30.08S
HOUGHTON LAKE  LGT RAIN  51  48  89 NW3       30.10R
MANISTEE       CLOUDY    55  48  76 W3        30.11R
OSCODA         CLOUDY    55  54  97 SW5       30.06F
PELLSTON       MOCLDY    57  45  64 W6        30.08R
ROGERS CITY    CLOUDY    57  48  72 NW3       30.07S
TRAVERSE CITY  MOCLDY    59  44  57 NW5       30.08R
$$
MIZ007>008-015-160000-
EASTERN UPPER MICHIGAN

CITY           SKY/WX    TMP DP  RH WIND       PRES   REMARKS
KINROSS        PTCLDY    54  45  71 NW9       30.07R
MACKINAC ISLAN PTCLDY    56  47  72 CALM      30.07S
NEWBERRY       PTCLDY    55  43  62 NW8       30.08R
S. S. MARIE    CLEAR     54  40  59 NW6       30.06R
MUNISING         N/A     57  48  72 N8        30.10R
$$
MIZ004>006-011>014-085-160000-
CENTRAL UPPER MICHIGAN

CITY           SKY/WX    TMP DP  RH WIND       PRES   REMARKS
MANISTIQUE     CLOUDY    55  51  86 CALM      30.08S
ESCANABA       MOCLDY    55  50  82 S3        30.09S
MENOMINEE      PTCLDY    61  43  51 CALM      30.08S
SAWYER-GWINN   MOCLDY    52  48  87 NE6       30.09R
$$
MIZ001>003-009>011-084-160000-
WESTERN UPPER MICHIGAN

CITY           SKY/WX    TMP DP  RH WIND       PRES   REMARKS
IRON MOUNTAIN  MOSUNNY   59  43  55 N8        30.09R
HOUGHTON       SUNNY     52  39  61 W14       30.10S
COPPER HARBOR    N/A     54  41  61 NW9       30.08S
IRONWOOD       SUNNY     52  37  58 W8        30.13R
$$

ABBREVIATIONS USED IN REMARKS
   TC - TEMPERATURE IN CELSIUS
  WCI - WIND CHILL INDEX
   HX - HEAT INDEX
  VSB - VISIBILITY




USA.gov is the U.S. government's official web portal to all federal, state and local government web resources and services.